Regional Weather Roundup
Issued by NWS

Home | Current Version | Previous Version | Graphics & Text | Print | Product List | Glossary On
Versions: 1 2 3 4 5 6 7 8 9 10 11 12 13 14 15 16 17 18 19 20 21 22 23 24 25 26 27 28 29 30 31 32 33 34 35 36 37 38 39 40 41 42 43 44 45 46 47 48 49 50
000
ASUS45 KCYS 261710
RWRWY

WYOMING REGIONAL WEATHER ROUNDUP
NATIONAL WEATHER SERVICE CHEYENNE WY
1000 AM MST THU FEB 26 2015

NOTE:  "FAIR" INDICATES FEW OR NO CLOUDS BELOW 12,000 FEET
WITH NO SIGNIFICANT WEATHER AND/OR OBSTRUCTIONS TO VISIBILITY.

WYZ001-261800-
YELLOWSTONE NATIONAL PARK

CITY           SKY/WX    TMP DP  RH WIND       PRES   REMARKS
LK YELLOWSTONE   N/A      3  -3  76 E5        29.98F WCI  -6
W YELLOWSTONE  NOT AVBL

$$
WYZ002>013-054>058-071-098>099-261800-
NORTHERN WYOMING

CITY           SKY/WX    TMP DP  RH WIND       PRES   REMARKS
JACKSON        SUNNY     10   5  79 N13       30.00F WCI  -5
CODY           PTSUNNY   10   9  92 NE9       30.19S WCI  -2
GREYBULL       CLOUDY    15   2  56 NW14      30.26S WCI   0
WORLAND        SNOW      14   9  80 NE7       30.25R VSB 1/2 WCI   4
SHERIDAN       CLOUDY     8   0  69 NE7       30.35S WCI  -3
BUFFALO        LGT SNOW   5  -1  76 N3        30.25S
GILLETTE       CLOUDY     4  -2  76 NE8       30.32R HAZE    WCI  -9
HULETT         CLOUDY     5  -4  66 N5        30.34S HAZE    WCI  -4
NEWCASTLE      FAIR       9  -4  56 NW12G17   30.32S WCI  -6

$$
WYZ014>020-022>026-101>103-261800-
CENTRAL WYOMING

CITY           SKY/WX    TMP DP  RH WIND       PRES   REMARKS
BIG PINEY      CLOUDY    19  13  77 SE5       29.98F WCI  12
PINEDALE       CLOUDY    12  10  92 N3        29.99F
DUBOIS         LGT SNOW  16   9  73 S6        29.98S WCI   7
LANDER         LGT SNOW  14   8  77 E3        30.11S
RIVERTON       LGT SNOW  13   8  81 E12       30.13R WCI  -1
CASPER         LGT SNOW  10   3  73 E14       30.18S WCI  -6
DOUGLAS        LGT SNOW  10   2  69 NE6       30.25R WCI   0

$$
WYZ021-027>030-104>119-261800-
SOUTHERN WYOMING

CITY           SKY/WX    TMP DP  RH WIND       PRES   REMARKS
EVANSTON       CLOUDY    23  17  78 E12       29.93S WCI  12
FORT BRIDGER   PTSUNNY   22  18  85 N8        29.98F WCI  12
ROCK SPRINGS   LGT SNOW  19  13  77 E6        29.98F WCI  11
DIXON          CLOUDY    22  11  62 S3        30.02F
RAWLINS        CLOUDY    18  12  77 E6        30.02R WCI  10
SARATOGA       PTSUNNY   19  10  68 CALM      30.00F
LARAMIE        NOT AVBL
CHEYENNE       LGT SNOW  10   3  73 NE9       30.10S WCI  -3
TORRINGTON     CLOUDY    12   2  64 CALM      30.29R
PINE BLUFFS    LGT SNOW  10   5  79 NE5       30.21R WCI   2

$$


USA.gov is the U.S. government's official web portal to all federal, state and local government web resources and services.